Previsão horária em Abercarn

Hoje, 13 Abril, Terça-feira

Tempo Temperatura Precipitação Vento Pressão Humidade
00:00 +1°C° 0 mm 1 m/s 755 mmHg 86%
01:00 +1°C° 0 mm 1 m/s 755 mmHg 86%
02:00 +1°C° 0 mm 1 m/s 755 mmHg 86%
03:00 +1°C° 0 mm 1 m/s 755 mmHg 86%
04:00 +1°C° 0 mm 1 m/s 755 mmHg 85%
05:00 +1°C° 0 mm 1 m/s 755 mmHg 85%
06:00 +1°C° 0 mm 1 m/s 756 mmHg 84%
07:00 +3°C° 0 mm 1 m/s 756 mmHg 79%
08:00 +4°C° 0 mm 0 m/s 756 mmHg 74%
09:00 +6°C° 0 mm 0 m/s 756 mmHg 70%
10:00 +8°C° 0 mm 1 m/s 756 mmHg 67%
11:00 +9°C° 0 mm 1 m/s 756 mmHg 65%
12:00 +10°C° 0 mm 1 m/s 756 mmHg 63%
13:00 +10°C° 0.1 mm 1 m/s 756 mmHg 64%
14:00 +10°C° 0.1 mm 1 m/s 756 mmHg 64%
15:00 +10°C° 0.1 mm 1 m/s 755 mmHg 65%
16:00 +9°C° 0.1 mm 1 m/s 755 mmHg 70%
17:00 +9°C° 0.1 mm 1 m/s 755 mmHg 74%
18:00 +8°C° 0.1 mm 1 m/s 755 mmHg 79%
19:00 +7°C° 0.1 mm 1 m/s 755 mmHg 82%
20:00 +6°C° 0.1 mm 1 m/s 756 mmHg 85%
21:00 +5°C° 0.1 mm 1 m/s 756 mmHg 87%
22:00 +4°C° 0 mm 1 m/s 756 mmHg 88%
23:00 +4°C° 0 mm 1 m/s 756 mmHg 88%

Amanhã, 14 Abril, Quarta-feira

Tempo Temperatura Precipitação Vento Pressão Humidade
00:00 +4°C° 0 mm 1 m/s 756 mmHg 89%
01:00 +3°C° 0 mm 1 m/s 756 mmHg 89%
02:00 +3°C° 0 mm 1 m/s 756 mmHg 90%
03:00 +3°C° 0 mm 1 m/s 755 mmHg 90%
04:00 +3°C° 0 mm 1 m/s 756 mmHg 90%
05:00 +2°C° 0 mm 2 m/s 756 mmHg 90%
06:00 +2°C° 0 mm 2 m/s 756 mmHg 90%
07:00 +3°C° 0 mm 2 m/s 756 mmHg 86%
08:00 +5°C° 0 mm 2 m/s 756 mmHg 81%
09:00 +7°C° 0 mm 3 m/s 756 mmHg 77%
10:00 +7°C° 0 mm 3 m/s 756 mmHg 73%
11:00 +8°C° 0 mm 3 m/s 756 mmHg 70%
12:00 +8°C° 0 mm 3 m/s 756 mmHg 67%
13:00 +9°C° 0 mm 3 m/s 756 mmHg 65%
14:00 +9°C° 0 mm 3 m/s 756 mmHg 63%
15:00 +9°C° 0 mm 3 m/s 756 mmHg 62%
16:00 +8°C° 0 mm 3 m/s 756 mmHg 64%
17:00 +8°C° 0 mm 2 m/s 756 mmHg 66%
18:00 +8°C° 0 mm 2 m/s 756 mmHg 68%
19:00 +6°C° 0 mm 2 m/s 756 mmHg 72%
20:00 +5°C° 0 mm 2 m/s 756 mmHg 76%
21:00 +4°C° 0 mm 1 m/s 756 mmHg 80%
22:00 +4°C° 0 mm 1 m/s 756 mmHg 82%
23:00 +3°C° 0 mm 1 m/s 756 mmHg 83%

Depois de amanhã, 15 Abril, Quinta-feira

Tempo Temperatura Precipitação Vento Pressão Humidade
00:00 +1°C° 0 mm 2 m/s 756 mmHg 85%
01:00 +2°C° 0 mm 1 m/s 756 mmHg 86%
02:00 +2°C° 0 mm 1 m/s 756 mmHg 87%
03:00 +1°C° 0 mm 1 m/s 756 mmHg 87%
04:00 -1°C° 0 mm 2 m/s 756 mmHg 88%
05:00 -1°C° 0 mm 2 m/s 757 mmHg 88%
06:00 -1°C° 0 mm 2 m/s 757 mmHg 89%
07:00 +2°C° 0 mm 2 m/s 757 mmHg 82%
08:00 +3°C° 0 mm 3 m/s 757 mmHg 75%
09:00 +4°C° 0 mm 3 m/s 757 mmHg 68%
10:00 +5°C° 0 mm 3 m/s 757 mmHg 63%
11:00 +6°C° 0 mm 4 m/s 756 mmHg 58%
12:00 +7°C° 0 mm 4 m/s 756 mmHg 53%
13:00 +7°C° 0 mm 4 m/s 756 mmHg 52%
14:00 +7°C° 0 mm 4 m/s 756 mmHg 51%
15:00 +8°C° 0 mm 4 m/s 755 mmHg 50%
16:00 +8°C° 0 mm 3 m/s 755 mmHg 56%
17:00 +7°C° 0 mm 3 m/s 755 mmHg 63%
18:00 +7°C° 0 mm 3 m/s 755 mmHg 70%
19:00 +4°C° 0 mm 3 m/s 755 mmHg 75%
20:00 +2°C° 0 mm 3 m/s 755 mmHg 81%
21:00 +1°C° 0 mm 3 m/s 755 mmHg 86%
22:00 0°C° 0 mm 3 m/s 755 mmHg 88%
23:00 0°C° 0 mm 3 m/s 755 mmHg 89%

16 Abril, Sexta-feira

Tempo Temperatura Precipitação Vento Pressão Humidade
00:00 -1°C° 0 mm 3 m/s 755 mmHg 91%
01:00 -1°C° 0 mm 2 m/s 755 mmHg 91%
02:00 -2°C° 0 mm 2 m/s 755 mmHg 92%
03:00 -2°C° 0 mm 2 m/s 755 mmHg 92%
04:00 -2°C° 0 mm 2 m/s 756 mmHg 91%
05:00 -2°C° 0 mm 2 m/s 756 mmHg 90%
06:00 -2°C° 0 mm 2 m/s 756 mmHg 89%
07:00 0°C° 0 mm 3 m/s 756 mmHg 78%
08:00 +2°C° 0 mm 3 m/s 756 mmHg 68%
09:00 +4°C° 0 mm 4 m/s 756 mmHg 57%
10:00 +5°C° 0 mm 4 m/s 756 mmHg 54%
11:00 +6°C° 0 mm 4 m/s 756 mmHg 52%
12:00 +8°C° 0 mm 3 m/s 755 mmHg 49%
13:00 +8°C° 0 mm 3 m/s 755 mmHg 50%
14:00 +9°C° 0 mm 3 m/s 755 mmHg 50%
15:00 +9°C° 0 mm 3 m/s 755 mmHg 51%
16:00 +8°C° 0 mm 3 m/s 755 mmHg 57%
17:00 +8°C° 0 mm 2 m/s 754 mmHg 63%
18:00 +7°C° 0 mm 2 m/s 754 mmHg 68%
19:00 +6°C° 0 mm 2 m/s 754 mmHg 71%
20:00 +6°C° 0 mm 1 m/s 755 mmHg 73%
21:00 +4°C° 0 mm 1 m/s 755 mmHg 76%
22:00 +4°C° 0 mm 1 m/s 755 mmHg 78%
23:00 +2°C° 0 mm 2 m/s 754 mmHg 81%

17 Abril, Sábado

Tempo Temperatura Precipitação Vento Pressão Humidade
00:00 +2°C° 0 mm 2 m/s 754 mmHg 84%
01:00 +1°C° 0 mm 2 m/s 754 mmHg 85%
02:00 +1°C° 0 mm 2 m/s 754 mmHg 87%
03:00 +1°C° 0 mm 2 m/s 754 mmHg 88%
04:00 +1°C° 0 mm 2 m/s 754 mmHg 87%
05:00 +1°C° 0 mm 2 m/s 754 mmHg 86%
06:00 +1°C° 0 mm 2 m/s 753 mmHg 85%
07:00 +3°C° 0 mm 2 m/s 753 mmHg 80%
08:00 +4°C° 0 mm 2 m/s 753 mmHg 75%
09:00 +6°C° 0 mm 2 m/s 753 mmHg 69%
10:00 +7°C° 0 mm 2 m/s 753 mmHg 67%
11:00 +8°C° 0 mm 2 m/s 753 mmHg 64%
12:00 +8°C° 0 mm 2 m/s 752 mmHg 62%
13:00 +9°C° 0 mm 2 m/s 752 mmHg 62%
14:00 +9°C° 0 mm 2 m/s 752 mmHg 61%
15:00 +9°C° 0 mm 2 m/s 751 mmHg 61%
16:00 +9°C° 0 mm 1 m/s 751 mmHg 66%
17:00 +9°C° 0 mm 1 m/s 751 mmHg 71%
18:00 +8°C° 0 mm 1 m/s 751 mmHg 76%
19:00 +8°C° 0 mm 1 m/s 751 mmHg 77%
20:00 +7°C° 0 mm 1 m/s 751 mmHg 79%
21:00 +7°C° 0 mm 1 m/s 751 mmHg 80%
22:00 +6°C° 0 mm 1 m/s 751 mmHg 81%
23:00 +6°C° 0 mm 1 m/s 751 mmHg 82%

18 Abril, Domingo

Tempo Temperatura Precipitação Vento Pressão Humidade
00:00 +6°C° 0 mm 1 m/s 751 mmHg 83%
01:00 +6°C° 0 mm 1 m/s 751 mmHg 85%
02:00 +5°C° 0 mm 1 m/s 751 mmHg 87%
03:00 +4°C° 0 mm 0 m/s 750 mmHg 88%
04:00 +5°C° 0 mm 1 m/s 750 mmHg 89%
05:00 +5°C° 0 mm 1 m/s 750 mmHg 89%
06:00 +5°C° 0 mm 1 m/s 750 mmHg 90%
07:00 +6°C° 0 mm 1 m/s 750 mmHg 84%
08:00 +7°C° 0 mm 2 m/s 750 mmHg 79%
09:00 +8°C° 0 mm 2 m/s 751 mmHg 73%
10:00 +9°C° 0 mm 3 m/s 750 mmHg 68%
11:00 +10°C° 0 mm 3 m/s 750 mmHg 62%
12:00 +10°C° 0 mm 4 m/s 750 mmHg 57%
13:00 +10°C° 0 mm 4 m/s 750 mmHg 58%
14:00 +10°C° 0 mm 4 m/s 750 mmHg 60%
15:00 +11°C° 0 mm 4 m/s 749 mmHg 61%
16:00 +10°C° 0 mm 4 m/s 749 mmHg 66%
17:00 +8°C° 0 mm 4 m/s 749 mmHg 70%
18:00 +7°C° 0 mm 4 m/s 749 mmHg 74%
19:00 +7°C° 0 mm 3 m/s 749 mmHg 77%
20:00 +5°C° 0 mm 3 m/s 749 mmHg 79%
21:00 +4°C° 0 mm 3 m/s 749 mmHg 82%
22:00 +4°C° 0 mm 3 m/s 749 mmHg 83%
23:00 +4°C° 0 mm 3 m/s 748 mmHg 83%
Mostrar mais

Necessitamos do seu Consentimento

A Meteoprog e os seus Fornecedores de Serviços podem armazenar e aceder a dados pessoais como cookies, identificadores do dispositivo ou outras tecnologias semelhantes existentes no seu dispositivo e processar estes dados para personalizar conteúdos e anúncios, assim como funcionalidades nas redes sociais e análise de tráfego.

  • Armazenar e/ou aceder a informações no seu dispositivo

    Os cookies, identificadores do dispositivo ou outras informações podem ser armazenados ou acedidos no seu dispositivo, para os fins acima indicados.

  • Anúncios e conteúdos personalizados, medição de anúncios e conteúdos, dados sobre o público-alvo e desenvolvimento de produtos

    Os anúncios e os conteúdos podem ser personalizados com base num perfil. Podem ser adicionados dados adicionais para uma maior personalização dos anúncios e dos conteúdos. A eficácia dos anúncios e dos conteúdos pode ser medida. Podem ser obtidas informações sobre o público que visualizou os anúncios e os conteúdos. Estes dados podem ser usados para desenvolver ou melhorar sistemas, softwares ou a experiência do utilizador.

Ao clicar em "Eu concordo”, permitirá o uso de cookies, identificadores do dispositivo e web beacons mencionados ou outras tecnologias semelhantes. As configurações do navegador do seu dispositivo podem ser alteradas.

Para certos fins, podem ser invocados interesses legítimos ao invés de consentimento. Pode ler mais informação sobre este assunto na nossa Política de Privacidade e Cookies.